EW7704 Weather Reports


Display with metric or nautical units.
time (UTC)temp
F
wind
direction
speed
MPH
gust
MPH
rain 1hr
in
rain 24hr
in
rain mn
in
humidity
%
barometer
mb
20260902123036 55 360 0.0 2.0 0.00 0.00 0.00 74 1008.2
20260902122536 55 360 0.0 2.0 0.00 0.00 0.00 74 1008.1
20260902122034 55 360 0.0 1.0 0.00 0.00 0.00 74 1008.1
20260902121535 55 360 0.0 1.0 0.00 0.00 0.00 75 1008.0
20260902121034 54 360 0.0 1.0 0.00 0.00 0.00 77 1008.0
20260902120534 54 360 0.0 1.0 0.00 0.00 0.00 79 1007.9
20260902120038 53 360 0.0 1.0 0.00 0.00 0.00 79 1007.9
20260902115533 54 360 0.0 1.0 0.00 0.00 0.00 77 1007.8
20260902115032 55 360 0.0 1.0 0.00 0.00 0.00 77 1007.7
20260902114533 56 360 0.0 1.0 0.00 0.00 0.00 76 1007.5
20260902114030 56 360 0.0 1.0 0.00 0.00 0.00 77 1007.5
20260902113530 55 360 0.0 1.0 0.00 0.00 0.00 77 1007.5
20260902113029 55 360 0.0 0.0 0.00 0.00 0.00 77 1007.5
20260902112529 55 360 0.0 0.0 0.00 0.00 0.00 77 1007.5
20260902112029 55 360 0.0 0.0 0.00 0.00 0.00 76 1007.5
20260902111527 56 360 0.0 1.0 0.00 0.00 0.00 75 1007.3
20260902111026 56 360 0.0 1.0 0.00 0.00 0.00 75 1007.3
20260902110526 56 360 0.0 0.0 0.00 0.00 0.00 74 1007.3
20260902110025 56 360 0.0 0.0 0.00 0.00 0.00 73 1007.4
20260902105525 57 360 0.0 0.0 0.00 0.00 0.00 73 1007.3
20260902105025 56 360 0.0 0.0 0.00 0.00 0.00 75 1007.3
20260902104525 56 360 0.0 0.0 0.00 0.00 0.00 75 1007.4
20260902104024 56 360 0.0 0.0 0.00 0.00 0.00 75 1007.5
20260902103525 57 360 0.0 0.0 0.00 0.00 0.00 74 1007.5
20260902103029 57 360 0.0 1.0 0.00 0.00 0.00 74 1007.5
20260902102524 57 360 0.0 1.0 0.00 0.00 0.00 75 1007.5
20260902102023 56 360 0.0 0.0 0.00 0.00 0.00 76 1007.5
20260902101522 56 360 0.0 0.0 0.00 0.00 0.00 76 1007.3
20260902101021 57 360 0.0 0.0 0.00 0.00 0.00 75 1007.3
20260902100520 57 360 0.0 0.0 0.00 0.00 0.00 75 1007.3
20260902100020 57 360 0.0 0.0 0.00 0.00 0.00 74 1007.3
20260902095523 57 360 0.0 1.0 0.00 0.00 0.00 74 1007.2
20260902095020 57 360 0.0 1.0 0.00 0.00 0.00 74 1007.3
20260902094519 57 360 0.0 0.0 0.00 0.00 0.00 73 1007.3
20260902094018 57 360 0.0 0.0 0.00 0.00 0.00 73 1007.2
20260902093520 57 360 0.0 1.0 0.00 0.00 0.00 73 1007.2
20260902093017 58 141 0.0 1.0 0.00 0.00 0.00 73 1007.2
20260902092517 58 141 0.0 1.0 0.00 0.00 0.00 72 1007.2
20260902092016 58 141 0.0 0.0 0.00 0.00 0.00 72 1007.3
20260902091533 58 360 0.0 0.0 0.00 0.00 0.00 72 1007.3
20260902091015 59 360 0.0 0.0 0.00 0.00 0.00 71 1007.2
20260902090515 59 141 0.0 1.0 0.00 0.00 0.00 71 1007.2
20260902090014 59 141 0.0 1.0 0.00 0.00 0.00 72 1007.2
20260902085514 59 141 0.0 2.0 0.00 0.00 0.00 71 1007.1
20260902085014 59 127 0.0 4.0 0.00 0.00 0.00 71 1007.1
20260902084514 59 360 1.0 4.0 0.00 0.00 0.00 74 1007.1
20260902084015 58 360 0.0 1.0 0.00 0.00 0.00 74 1007.1
20260902083514 59 292 0.0 1.0 0.00 0.00 0.00 72 1007.0
20260902083012 59 360 0.0 1.0 0.00 0.00 0.00 73 1007.0
20260902082512 59 360 0.0 1.0 0.00 0.00 0.00 74 1007.1
20260902082011 59 360 0.0 1.0 0.00 0.00 0.00 73 1007.1
20260902081511 59 360 0.0 1.0 0.00 0.00 0.00 73 1007.1
20260902081010 60 360 0.0 1.0 0.00 0.00 0.00 72 1007.1
20260902080509 60 269 0.0 0.0 0.00 0.00 0.00 71 1007.1
20260902080009 60 246 0.0 1.0 0.00 0.00 0.00 70 1007.1
20260902075506 61 262 0.0 1.0 0.00 0.01 0.00 70 1007.2
20260902075006 61 269 0.0 1.0 0.00 0.01 0.00 67 1007.2
20260902074505 61 269 0.0 1.0 0.00 0.01 0.00 70 1007.2
20260902074004 61 270 0.0 1.0 0.00 0.01 0.00 71 1007.1
20260902073506 61 270 0.0 0.0 0.00 0.01 0.00 70 1007.1
20260902073111 62 270 0.0 1.0 0.00 0.01 0.00 70 1007.0
20260902072603 61 270 0.0 1.0 0.00 0.01 0.00 72 1007.0
20260902072002 62 270 0.0 0.0 0.00 0.01 0.00 71 1007.0
20260902071510 62 270 0.0 0.0 0.00 0.01 0.00 71 1007.1
20260902071002 62 269 0.0 0.0 0.00 0.01 0.00 72 1007.1
20260902070500 62 269 0.0 0.0 0.00 0.01 0.00 70 1006.9
20260902070002 62 269 0.0 0.0 0.00 0.01 0.00 70 1006.9
20260902065600 62 269 0.0 1.0 0.00 0.01 0.00 71 1007.0
20260902065100 62 269 0.0 1.0 0.00 0.01 0.00 70 1006.9
20260902064606 62 269 0.0 2.0 0.00 0.01 0.00 70 1007.0
20260902064056 63 269 0.0 2.0 0.00 0.01 0.00 66 1006.9
20260902063557 64 236 0.0 3.0 0.00 0.01 0.00 65 1006.9
20260902063059 63 217 1.0 2.0 0.00 0.01 0.00 66 1007.0
20260902062557 63 273 0.0 1.0 0.00 0.01 0.00 66 1007.0
20260902062059 64 273 0.0 2.0 0.00 0.01 0.00 65 1007.0
20260902061607 64 267 0.0 2.0 0.00 0.01 0.00 64 1007.0
20260902061054 64 214 1.0 4.0 0.00 0.01 0.00 63 1007.1
20260902060552 65 247 1.0 4.0 0.00 0.01 0.00 63 1007.1
20260902060050 65 217 1.0 3.0 0.00 0.01 0.00 63 1007.1
20260902055650 65 245 1.0 3.0 0.00 0.01 0.01 63 1007.1
20260902055050 65 246 1.0 3.0 0.00 0.01 0.01 64 1007.2
20260902054550 64 255 0.0 3.0 0.00 0.01 0.01 64 1007.1
20260902054049 64 234 0.0 0.0 0.00 0.01 0.01 64 1007.1
20260902053549 65 234 0.0 1.0 0.00 0.01 0.01 64 1007.1
20260902053051 65 235 0.0 2.0 0.00 0.01 0.01 62 1007.1
20260902052549 65 235 0.0 2.0 0.00 0.01 0.01 62 1007.3
20260902052049 65 245 0.0 3.0 0.00 0.01 0.01 62 1007.2
20260902051549 66 243 1.0 3.0 0.00 0.01 0.01 62 1007.3
20260902051049 66 227 0.0 0.0 0.00 0.01 0.01 60 1007.3
20260902050551 66 227 0.0 1.0 0.00 0.01 0.01 60 1007.2
20260902050051 67 360 0.0 2.0 0.00 0.01 0.01 60 1007.3
20260902045548 67 360 0.0 4.0 0.00 0.01 0.01 60 1007.3
20260902045048 67 360 0.0 4.0 0.00 0.01 0.01 59 1007.2
20260902044548 67 360 1.0 6.0 0.00 0.01 0.01 59 1007.3
20260902044051 68 360 0.0 6.0 0.00 0.01 0.01 58 1007.4
20260902043550 68 360 2.0 4.0 0.00 0.01 0.01 57 1007.5
20260902043053 69 281 2.0 4.0 0.00 0.01 0.01 56 1007.6
20260902042547 70 252 1.0 3.0 0.00 0.01 0.01 51 1007.6
20260902042047 71 360 0.0 2.0 0.00 0.01 0.01 47 1007.5
20260902041548 70 360 0.0 1.0 0.00 0.01 0.01 49 1007.4
20260902041047 70 360 0.0 2.0 0.00 0.01 0.01 50 1007.5
20260902040547 70 116 0.0 5.0 0.00 0.01 0.01 50 1007.5
20260902040047 71 142 2.0 5.0 0.00 0.01 0.01 49 1007.5
20260902035550 71 360 0.0 1.0 0.00 0.06 0.01 48 1007.5
20260902035046 71 260 0.0 0.0 0.00 0.06 0.01 48 1007.5
20260902034546 71 259 0.0 1.0 0.00 0.06 0.01 48 1007.6
20260902034047 72 259 0.0 1.0 0.00 0.06 0.01 47 1007.5
20260902033547 72 259 0.0 2.0 0.00 0.06 0.01 47 1007.4
20260902033045 71 259 0.0 3.0 0.00 0.06 0.01 48 1007.5
20260902032545 72 260 0.0 3.0 0.00 0.06 0.01 48 1007.5
20260902032044 73 66 0.0 3.0 0.00 0.06 0.01 46 1007.4
20260902031545 74 80 2.0 4.0 0.00 0.06 0.01 44 1007.2
20260902031045 73 78 2.0 3.0 0.00 0.06 0.01 45 1007.2
20260902030548 73 105 1.0 3.0 0.00 0.06 0.01 45 1007.2
20260902030044 72 101 0.0 2.0 0.00 0.06 0.01 46 1007.2
20260902025544 72 115 0.0 3.0 0.00 0.08 0.01 46 1007.1
20260902025044 72 75 1.0 3.0 0.00 0.08 0.01 46 1007.1
20260902024547 74 97 1.0 3.0 0.00 0.08 0.01 44 1007.0
20260902024044 75 348 0.0 5.0 0.00 0.08 0.01 43 1006.8
20260902023543 75 59 3.0 8.0 0.00 0.08 0.01 41 1006.8
20260902023043 76 62 4.0 8.0 0.00 0.08 0.01 41 1006.6
20260902022543 76 64 4.0 8.0 0.00 0.08 0.01 40 1006.7
20260902022044 77 73 3.0 10.0 0.00 0.08 0.01 39 1006.9
20260902021550 77 90 5.0 10.0 0.00 0.08 0.01 38 1006.8
20260902021042 76 71 5.0 9.0 0.00 0.08 0.01 39 1006.7
20260902020542 76 53 4.0 8.0 0.00 0.08 0.01 39 1006.6
20260902020041 76 94 2.0 8.0 0.00 0.08 0.01 40 1006.6
20260902015545 76 111 4.0 8.0 0.00 0.08 0.01 40 1006.6
20260902015042 76 92 3.0 6.0 0.00 0.08 0.01 39 1006.4
20260902014544 76 60 3.0 6.0 0.00 0.08 0.01 40 1006.4
20260902014041 75 63 2.0 4.0 0.00 0.08 0.01 41 1006.3
20260902013540 75 81 1.0 3.0 0.00 0.08 0.01 42 1006.3
20260902013040 76 53 0.0 4.0 0.00 0.08 0.01 41 1006.1
20260902012540 76 132 1.0 4.0 0.00 0.08 0.01 41 1006.1
20260902012039 77 351 2.0 5.0 0.00 0.08 0.01 40 1006.1
20260902011548 78 351 1.0 5.0 0.00 0.08 0.01 40 1005.9
20260902011038 79 360 0.0 3.0 0.00 0.08 0.01 42 1006.0
20260902010538 80 360 0.0 2.0 0.00 0.08 0.01 36 1005.9
20260902010107 80 360 1.0 2.0 0.00 0.08 0.01 36 1005.9
20260902005537 80 360 0.0 2.0 0.00 0.08 0.01 37 1005.9
20260902005037 80 360 0.0 2.0 0.00 0.08 0.01 38 1006.0
20260902004537 80 360 0.0 2.0 0.00 0.08 0.01 38 1005.9
20260902004035 80 360 0.0 2.0 0.00 0.08 0.01 39 1005.9
20260902003535 80 26 0.0 2.0 0.00 0.08 0.01 39 1005.9
20260902003035 80 360 0.0 2.0 0.00 0.08 0.01 39 1006.0
20260902002536 81 5 0.0 2.0 0.00 0.08 0.01 36 1006.0
20260902002034 81 5 0.0 2.0 0.00 0.08 0.01 34 1006.0
20260902001535 82 5 0.0 1.0 0.00 0.08 0.01 31 1006.0
20260902001036 81 5 0.0 1.0 0.00 0.08 0.01 33 1006.1
20260902000534 82 9 0.0 1.0 0.00 0.08 0.01 33 1006.0
20260902000043 82 5 0.0 1.0 0.00 0.08 0.01 33 1006.0
20260901235534 82 5 0.0 1.0 0.00 0.08 0.01 34 1005.9
20260901235033 81 5 0.0 1.0 0.00 0.08 0.01 34 1005.9
20260901234533 81 5 0.0 2.0 0.00 0.08 0.01 34 1006.0
20260901234033 82 5 0.0 2.0 0.00 0.08 0.01 36 1006.0
20260901233533 83 5 0.0 2.0 0.00 0.08 0.01 33 1005.9
20260901233033 83 360 0.0 2.0 0.00 0.08 0.01 32 1005.9
20260901232533 83 28 0.0 3.0 0.00 0.08 0.01 30 1005.9
20260901232037 85 28 0.0 4.0 0.00 0.08 0.01 28 1005.8
20260901231541 85 355 1.0 4.0 0.00 0.08 0.01 28 1005.8
20260901231032 86 30 1.0 5.0 0.00 0.08 0.01 29 1005.8
20260901230532 86 56 3.0 8.0 0.00 0.08 0.01 27 1005.8
20260901230035 86 17 2.0 8.0 0.00 0.08 0.01 27 1005.9
20260901225533 86 82 3.0 6.0 0.00 0.08 0.01 28 1005.8
20260901225030 86 99 1.0 4.0 0.00 0.08 0.01 28 1005.9
20260901224540 86 88 2.0 6.0 0.00 0.08 0.01 29 1005.9
20260901224029 86 24 3.0 6.0 0.00 0.08 0.01 32 1006.0
20260901223529 85 10 2.0 7.0 0.00 0.08 0.01 30 1006.0
20260901223044 85 13 1.0 4.0 0.00 0.08 0.01 31 1006.0
20260901222527 84 42 2.0 5.0 0.00 0.08 0.01 32 1006.0
20260901222027 83 16 2.0 5.0 0.00 0.08 0.01 32 1006.1
20260901221527 83 9 1.0 2.0 0.00 0.08 0.01 34 1006.1
20260901221028 83 26 0.0 4.0 0.00 0.08 0.01 32 1006.2
20260901220530 84 28 2.0 4.0 0.00 0.08 0.01 29 1006.1
20260901220030 85 26 0.0 3.0 0.00 0.08 0.01 30 1006.2
20260901215526 85 226 0.0 4.0 0.00 0.08 0.01 30 1006.3
20260901215129 86 251 1.0 4.0 0.00 0.08 0.01 33 1006.3
20260901214526 86 22 1.0 5.0 0.00 0.08 0.01 28 1006.4
20260901214023 87 238 2.0 7.0 0.00 0.08 0.01 31 1006.5
20260901213523 87 204 2.0 7.0 0.00 0.08 0.01 32 1006.6
20260901213029 86 242 1.0 5.0 0.00 0.08 0.01 31 1006.5
20260901212520 85 239 2.0 5.0 0.00 0.08 0.01 34 1006.7
20260901212020 83 216 1.0 4.0 0.00 0.08 0.01 37 1006.7
20260901211526 82 215 1.0 3.0 0.00 0.08 0.01 36 1006.7
20260901211019 83 240 0.0 3.0 0.00 0.08 0.01 36 1006.7
20260901210519 83 259 0.0 4.0 0.00 0.08 0.01 34 1006.8
20260901210033 83 193 1.0 6.0 0.00 0.08 0.01 33 1006.7
20260901205519 84 348 3.0 8.0 0.00 0.08 0.01 31 1006.8
20260901205019 84 9 2.0 8.0 0.00 0.08 0.01 30 1006.7
20260901204525 84 11 2.0 8.0 0.00 0.08 0.01 31 1006.7
20260901204121 84 13 3.0 10.0 0.00 0.08 0.01 30 1006.7
20260901203518 84 13 6.0 10.0 0.00 0.08 0.01 32 1006.8
20260901203019 84 89 3.0 12.0 0.00 0.08 0.01 31 1006.7
20260901202519 85 81 6.0 12.0 0.00 0.08 0.01 30 1006.7
20260901202016 85 65 3.0 10.0 0.00 0.08 0.01 32 1006.7
20260901201516 83 13 5.0 12.0 0.00 0.08 0.01 33 1006.8
20260901201018 83 117 5.0 12.0 0.00 0.08 0.01 33 1006.8
20260901200516 83 11 4.0 10.0 0.00 0.08 0.01 34 1006.9
20260901200036 83 11 6.0 10.0 0.00 0.08 0.01 34 1006.9
20260901195515 84 90 6.0 11.0 0.00 0.08 0.01 34 1006.9
20260901195014 85 94 6.0 11.0 0.00 0.08 0.01 33 1006.9
20260901194514 85 52 6.0 11.0 0.00 0.08 0.01 33 1006.8
20260901194013 84 64 1.0 10.0 0.00 0.08 0.01 33 1006.9
20260901193513 85 103 6.0 10.0 0.00 0.08 0.01 32 1007.0
20260901193011 85 71 7.0 13.0 0.00 0.08 0.01 35 1007.0
20260901192511 84 82 5.0 13.0 0.00 0.08 0.01 35 1007.1
20260901192011 84 44 7.0 12.0 0.00 0.08 0.01 37 1007.1
20260901191513 84 55 8.0 12.0 0.00 0.08 0.01 37 1007.2
20260901191010 84 52 6.0 11.0 0.00 0.08 0.01 38 1007.2
20260901190511 84 104 8.0 11.0 0.00 0.08 0.01 37 1007.2
20260901190009 84 76 6.0 13.0 0.00 0.08 0.01 38 1007.3
20260901185508 83 58 6.0 13.0 0.00 0.08 0.01 40 1007.4
20260901185008 83 61 8.0 13.0 0.00 0.08 0.01 39 1007.4
20260901184508 83 32 3.0 9.0 0.00 0.08 0.01 36 1007.6
20260901184006 84 25 4.0 9.0 0.00 0.08 0.01 34 1007.6
20260901183504 83 26 1.0 9.0 0.00 0.08 0.01 39 1007.7
20260901183004 83 67 4.0 9.0 0.00 0.08 0.01 34 1007.8
20260901182503 82 29 2.0 9.0 0.00 0.08 0.01 38 1007.8
20260901182003 81 53 5.0 9.0 0.00 0.08 0.01 39 1007.8
20260901181502 82 34 4.0 7.0 0.00 0.08 0.01 44 1008.0
20260901181001 82 34 2.0 5.0 0.00 0.08 0.01 47 1008.1
20260901180501 82 5 1.0 4.0 0.00 0.08 0.01 50 1008.2
20260901175600 81 323 2.0 5.0 0.00 0.08 0.01 47 1008.2
20260901175100 80 33 1.0 6.0 0.00 0.08 0.01 45 1008.3
20260901174605 80 348 3.0 10.0 0.00 0.08 0.01 49 1008.3
20260901174059 80 297 2.0 10.0 0.00 0.08 0.01 54 1008.3
20260901173600 82 282 2.0 4.0 0.00 0.08 0.01 40 1008.5
20260901173059 81 27 0.0 4.0 0.00 0.08 0.01 46 1008.5
20260901172557 80 319 1.0 4.0 0.00 0.08 0.01 47 1008.6
20260901172057 80 212 1.0 4.0 0.00 0.08 0.01 44 1008.6
20260901171555 79 119 1.0 4.0 0.00 0.08 0.01 43 1008.7
20260901171054 78 223 0.0 3.0 0.00 0.08 0.01 54 1008.7
20260901170553 77 12 1.0 4.0 0.00 0.08 0.01 53 1008.8
20260901170154 77 94 1.0 7.0 0.00 0.08 0.01 54 1008.7
20260901165553 76 134 2.0 7.0 0.00 0.08 0.01 58 1008.8
20260901165053 75 59 2.0 7.0 0.00 0.08 0.01 60 1008.8
20260901164549 74 142 2.0 7.0 0.00 0.08 0.01 60 1008.8
20260901164046 73 93 3.0 7.0 0.00 0.08 0.01 63 1008.9
20260901163545 71 120 1.0 4.0 0.00 0.08 0.01 67 1009.0
20260901163046 70 86 1.0 4.0 0.00 0.08 0.01 69 1009.0
20260901162548 70 57 1.0 3.0 0.00 0.08 0.01 71 1008.9
20260901162045 71 9 1.0 3.0 0.00 0.08 0.01 68 1009.0
20260901161557 70 325 0.0 2.0 0.00 0.08 0.01 72 1009.1
20260901161044 69 214 0.0 2.0 0.00 0.08 0.01 74 1009.1
20260901160542 69 175 0.0 2.0 0.00 0.08 0.01 77 1009.0
20260901160040 67 248 0.0 2.0 0.00 0.08 0.01 79 1009.1
20260901155539 66 111 0.0 3.0 0.00 0.08 0.01 80 1009.1
20260901155041 66 218 1.0 3.0 0.00 0.08 0.01 80 1009.2
20260901154539 66 232 0.0 2.0 0.00 0.08 0.01 80 1009.1
20260901154036 66 232 0.0 2.0 0.00 0.08 0.01 81 1009.2
20260901153535 66 232 0.0 2.0 0.00 0.08 0.01 84 1009.2
20260901153044 66 229 0.0 2.0 0.00 0.08 0.01 84 1009.1
20260901152534 65 231 0.0 2.0 0.00 0.08 0.01 87 1009.2
20260901152033 65 229 0.0 3.0 0.00 0.08 0.01 86 1009.1
20260901151533 65 228 1.0 3.0 0.00 0.08 0.01 87 1009.2
20260901151032 65 209 0.0 1.0 0.00 0.08 0.01 88 1009.2
20260901150531 64 207 0.0 2.0 0.00 0.08 0.01 89 1009.2
20260901150030 63 209 0.0 2.0 0.00 0.08 0.01 90 1009.2
20260901145529 63 157 0.0 2.0 0.00 0.08 0.01 91 1009.2
20260901145028 63 153 0.0 2.0 0.00 0.08 0.01 91 1009.3
20260901144527 63 136 0.0 1.0 0.00 0.08 0.01 91 1009.2
20260901144026 62 137 0.0 1.0 0.00 0.08 0.01 92 1009.3
20260901143526 62 138 0.0 1.0 0.00 0.08 0.01 92 1009.3
20260901143026 62 132 0.0 2.0 0.00 0.08 0.01 92 1009.3
20260901142525 62 83 0.0 3.0 0.00 0.08 0.01 92 1009.3
20260901142025 62 112 0.0 2.0 0.00 0.08 0.01 93 1009.4
20260901141535 61 159 0.0 2.0 0.00 0.08 0.01 93 1009.3
20260901141025 61 120 0.0 2.0 0.00 0.08 0.01 93 1009.2
20260901140526 61 198 0.0 2.0 0.00 0.08 0.01 93 1009.2
20260901140029 61 190 0.0 2.0 0.00 0.08 0.01 93 1009.1
20260901135528 61 134 0.0 2.0 0.00 0.08 0.01 93 1009.1
20260901135029 61 131 0.0 2.0 0.00 0.08 0.01 93 1009.0
20260901134524 60 132 0.0 1.0 0.00 0.08 0.01 93 1009.0
20260901134024 60 134 0.0 1.0 0.00 0.08 0.01 93 1009.0
20260901133523 60 142 0.0 2.0 0.00 0.08 0.01 93 1008.9
20260901133023 60 211 1.0 2.0 0.00 0.08 0.01 93 1008.8
20260901132523 60 211 0.0 1.0 0.00 0.08 0.01 92 1008.7
20260901132023 60 211 0.0 1.0 0.00 0.08 0.01 92 1008.7
20260901131531 60 211 0.0 1.0 0.00 0.08 0.01 92 1008.6
20260901131022 59 211 0.0 0.0 0.00 0.08 0.01 92 1008.7
20260901130522 59 210 0.0 1.0 0.00 0.08 0.01 92 1008.4
20260901130023 59 210 0.0 1.0 0.00 0.08 0.01 92 1008.4
20260901125521 59 210 0.0 1.0 0.00 0.08 0.01 91 1008.3
20260901125022 59 210 0.0 1.0 0.00 0.08 0.01 91 1008.1
20260901124524 59 210 0.0 0.0 0.00 0.08 0.01 91 1008.1
20260901124023 59 210 0.0 0.0 0.00 0.08 0.01 91 1008.0
20260901123520 59 210 0.0 0.0 0.00 0.08 0.01 91 1008.0